TimeMST,TemperatureF,Dew PointF,Humidity,Sea Level PressureIn,VisibilityMPH,Wind Direction,Wind SpeedMPH,Gust SpeedMPH,PrecipitationIn,Events,Conditions,WindDirDegrees,DateUTC
12:53 AM,84.9,43.0,23,29.65,10.0,WNW,3.5,-,N/A,,Clear,300,2013-07-05 07:53:00
1:53 AM,86.0,44.1,23,29.67,10.0,West,6.9,-,0.00,Rain,Light Rain,280,2013-07-05 08:53:00
2:53 AM,81.0,54.0,39,29.68,5.0,Variable,5.8,24.2,0.00,Rain,Rain,0,2013-07-05 09:53:00
3:53 AM,82.0,52.0,35,29.67,10.0,SSW,5.8,-,0.01,,Scattered Clouds,210,2013-07-05 10:53:00
4:53 AM,82.0,51.1,34,29.66,10.0,SSW,4.6,-,N/A,,Clear,210,2013-07-05 11:53:00
5:53 AM,81.0,50.0,34,29.67,10.0,Calm,Calm,-,N/A,,Clear,0,2013-07-05 12:53:00
6:53 AM,81.0,53.1,38,29.70,10.0,WSW,3.5,-,N/A,,Clear,250,2013-07-05 13:53:00
7:53 AM,84.9,48.9,29,29.72,10.0,Calm,Calm,-,N/A,,Clear,0,2013-07-05 14:53:00
8:53 AM,87.1,46.9,25,29.72,10.0,Calm,Calm,-,N/A,,Clear,0,2013-07-05 15:53:00
9:53 AM,91.9,46.0,21,29.70,10.0,Variable,3.5,-,N/A,,Clear,0,2013-07-05 16:53:00
10:53 AM,96.1,46.0,18,29.68,10.0,SE,5.8,-,N/A,,Clear,130,2013-07-05 17:53:00
11:53 AM,96.1,45.0,17,29.66,10.0,South,6.9,-,N/A,,Clear,170,2013-07-05 18:53:00
12:53 PM,98.1,45.0,16,29.63,10.0,Calm,Calm,-,N/A,,Clear,0,2013-07-05 19:53:00
1:33 PM,95.0,44.6,18,29.87,10.0,West,5.8,-,N/A,Thunderstorm,Clear,260,2013-07-05 20:33:00
1:51 PM,91.4,46.4,21,29.87,10.0,SW,17.3,25.3,N/A,,Partly Cloudy,220,2013-07-05 20:51:00
1:53 PM,91.0,46.0,21,29.64,10.0,SW,12.7,25.3,N/A,,Partly Cloudy,220,2013-07-05 20:53:00
2:03 PM,91.4,42.8,18,29.85,10.0,South,13.8,23.0,N/A,Thunderstorm,Scattered Clouds,190,2013-07-05 21:03:00
2:18 PM,93.2,39.2,15,29.84,10.0,SSW,9.2,20.7,N/A,,Partly Cloudy,210,2013-07-05 21:18:00
2:53 PM,93.9,37.9,14,29.62,10.0,SSW,9.2,-,N/A,,Clear,200,2013-07-05 21:53:00
3:53 PM,91.0,46.9,22,29.64,10.0,SW,10.4,24.2,N/A,Thunderstorm,Mostly Cloudy,220,2013-07-05 22:53:00
4:13 PM,89.6,48.2,24,29.90,10.0,SW,10.4,26.5,N/A,,Overcast,230,2013-07-05 23:13:00
4:20 PM,87.8,48.2,25,29.91,10.0,Variable,6.9,23.0,N/A,Thunderstorm,Overcast,0,2013-07-05 23:20:00
4:40 PM,82.4,55.4,39,29.94,10.0,North,15.0,21.9,0.00,Rain,Light Rain,360,2013-07-05 23:40:00
4:44 PM,82.4,55.4,39,29.94,10.0,North,15.0,-,0.00,Rain-Thunderstorm,Light Rain,10,2013-07-05 23:44:00
4:53 PM,81.0,57.0,44,29.73,10.0,NE,11.5,20.7,0.00,Thunderstorm,Overcast,50,2013-07-05 23:53:00
5:10 PM,84.2,51.8,33,29.93,10.0,NE,11.5,18.4,0.00,,Scattered Clouds,50,2013-07-06 00:10:00
5:53 PM,87.1,48.9,27,29.70,10.0,ENE,4.6,-,0.00,,Clear,70,2013-07-06 00:53:00
6:53 PM,84.0,52.0,33,29.70,10.0,Calm,Calm,-,N/A,,Clear,0,2013-07-06 01:53:00
7:53 PM,82.0,55.0,39,29.70,10.0,North,8.1,-,N/A,,Clear,360,2013-07-06 02:53:00
8:53 PM,81.0,54.0,39,29.76,10.0,Calm,Calm,-,N/A,,Scattered Clouds,0,2013-07-06 03:53:00
9:53 PM,79.0,55.0,44,29.71,10.0,SSE,10.4,-,0.00,,Scattered Clouds,150,2013-07-06 04:53:00
10:53 PM,81.0,48.9,33,29.71,10.0,Calm,Calm,-,N/A,,Clear,0,2013-07-06 05:53:00
11:53 PM,77.0,53.1,43,29.72,10.0,Calm,Calm,-,N/A,,Clear,0,2013-07-06 06:53:00